,,Stat6,,Stat2,,Stat8,,Stat9,,Stat10,,Wind1,,Wind1,
time,status,PA1M_AVG,status,PR1M_SUM,status,RH1M_AVG,status,SR1M_AVG,status,TA1M_AVG,status,W1dAve1m,status,W1sAve1m,
2006-03-09, 00:00:01,VALID,920.178,VALID,0,VALID,100,VALID,-0.0679233,VALID,20.7079,VALID,246,VALID,0.583576,
2006-03-09, 00:01:01,VALID,920.172,VALID,0,VALID,100,VALID,-0.0679233,VALID,20.7243,VALID,244,VALID,0.207317,
2006-03-09, 00:02:00,VALID,920.147,VALID,0,VALID,100,VALID,-0.0849042,VALID,20.7049,VALID,244,VALID,0.0912109,
2006-03-09, 00:03:00,VALID,920.144,VALID,0,VALID,100,VALID,-0.0679233,VALID,20.6855,VALID,225,VALID,0.301339,
2006-03-09, 00:04:00,VALID,920.145,VALID,0,VALID,100,VALID,-0.0679233,VALID,20.6696,VALID,211,VALID,0.21147,
2006-03-09, 00:05:00,VALID,920.143,VALID,0,VALID,100,VALID,-0.0679233,VALID,20.64,VALID,211,VALID,0.255556,
2006-03-09, 00:06:00,VALID,920.155,VALID,0,VALID,100,VALID,-0.0849042,VALID,20.647,VALID,211,VALID,0.260901,
2006-03-09, 00:07:00,VALID,920.143,VALID,0,VALID,100,VALID,-0.0679233,VALID,20.6403,VALID,217,VALID,0.60992,
2006-03-09, 00:08:00,VALID,920.147,VALID,0,VALID,100,VALID,-0.0509425,VALID,20.6274,VALID,221,VALID,0.473047,
2006-03-09, 00:09:00,VALID,920.125,VALID,0,VALID,100,VALID,-0.0339617,VALID,20.6179,VALID,221,VALID,0.384859,
2006-03-09, 00:10:01,VALID,920.124,VALID,0,VALID,100,VALID,-0.0679233,VALID,20.6212,VALID,221,VALID,0.213341,
2006-03-09, 00:11:00,VALID,920.113,VALID,0,VALID,100,VALID,-0.0339617,VALID,20.6212,VALID,221,VALID,0.0766369,
2006-03-09, 00:12:00,VALID,920.1,VALID,0,VALID,100,VALID,-0.0339617,VALID,20.6405,VALID,221,VALID,0,
2006-03-09, 00:13:00,VALID,920.096,VALID,0,VALID,100,VALID,-0.0339617,VALID,20.6341,VALID,221,VALID,0.0657704,
2006-03-09, 00:14:01,VALID,920.076,VALID,0,VALID,100,VALID,-0.0849042,VALID,20.6047,VALID,183,VALID,0.512398,
2006-03-09, 00:15:01,VALID,920.072,VALID,0,VALID,100,VALID,-0.0339617,VALID,20.5592,VALID,116,VALID,0.968924,
2006-03-09, 00:16:00,VALID,920.053,VALID,0,VALID,100,VALID,0,VALID,20.5463,VALID,116,VALID,0.948946,
2006-03-09, 00:17:01,VALID,920.051,VALID,0,VALID,100,VALID,-0.0509425,VALID,20.5142,VALID,107,VALID,0.990385,
2006-03-09, 00:18:01,VALID,920.037,VALID,0,VALID,100,VALID,-0.0509425,VALID,20.4499,VALID,106,VALID,1.0385,
2006-03-09, 00:19:00,VALID,920.004,VALID,0,VALID,100,VALID,-0.0509425,VALID,20.3949,VALID,107,VALID,1.02028,
2006-03-09, 00:20:00,VALID,919.978,VALID,0,VALID,100,VALID,-0.0509425,VALID,20.3363,VALID,110,VALID,1.09034,
2006-03-09, 00:21:00,VALID,919.954,VALID,0,VALID,100,VALID,-0.0339617,VALID,20.2851,VALID,101,VALID,0.791109,
2006-03-09, 00:22:01,VALID,919.938,VALID,0,VALID,100,VALID,-0.0679233,VALID,20.2266,VALID,91,VALID,0.479539,
2006-03-09, 00:23:00,VALID,919.931,VALID,0,VALID,100,VALID,-0.0509425,VALID,20.1782,VALID,85,VALID,0.549419,
2006-03-09, 00:24:01,VALID,919.917,VALID,0,VALID,100,VALID,-0.0849042,VALID,20.1362,VALID,84,VALID,0.502907,
2006-03-09, 00:25:00,VALID,919.903,VALID,0,VALID,100,VALID,-0.0509425,VALID,20.1068,VALID,83,VALID,0.43657,
2006-03-09, 00:26:00,VALID,919.902,VALID,0,VALID,100,VALID,-0.0339617,VALID,20.0738,VALID,83,VALID,0.384527,
2006-03-09, 00:27:00,VALID,919.891,VALID,0,VALID,100,VALID,-0.0849042,VALID,20.0651,VALID,83,VALID,0.250831,
2006-03-09, 00:28:01,VALID,919.891,VALID,0,VALID,100,VALID,-0.0339617,VALID,20.0591,VALID,83,VALID,0.00798611,
2006-03-09, 00:29:00,VALID,919.885,VALID,0,VALID,100,VALID,-0.0509425,VALID,20.0362,VALID,83,VALID,0.000801282,
2006-03-09, 00:30:00,VALID,919.868,VALID,0,VALID,100,VALID,-0.0169808,VALID,20.0228,VALID,67,VALID,0.282813,
2006-03-09, 00:31:01,VALID,919.875,VALID,0,VALID,100,VALID,0,VALID,20.0266,VALID,33,VALID,0.598586,
2006-03-09, 00:32:00,VALID,919.87,VALID,0,VALID,100,VALID,-0.0509425,VALID,20.0134,VALID,24,VALID,0.572443,
2006-03-09, 00:33:00,VALID,919.837,VALID,0,VALID,100,VALID,-0.0509425,VALID,19.9945,VALID,24,VALID,0.373001,
2006-03-09, 00:34:01,VALID,919.814,VALID,0,VALID,100,VALID,-0.0509425,VALID,19.988,VALID,70,VALID,0.550967,
2006-03-09, 00:35:00,VALID,919.775,VALID,0,VALID,100,VALID,-0.0679233,VALID,19.994,VALID,107,VALID,0.601944,
2006-03-09, 00:36:01,VALID,919.756,VALID,0,VALID,100,VALID,-0.0849042,VALID,20.0373,VALID,109,VALID,0.766644,
2006-03-09, 00:37:00,VALID,919.702,VALID,0,VALID,100,VALID,-0.0509425,VALID,20.0203,VALID,125,VALID,0.914993,
2006-03-09, 00:38:00,VALID,919.678,VALID,0,VALID,100,VALID,-0.0679233,VALID,20.0362,VALID,106,VALID,0.790661,
2006-03-09, 00:39:00,VALID,919.643,VALID,0,VALID,100,VALID,-0.0679233,VALID,20.0457,VALID,90,VALID,0.824591,
2006-03-09, 00:40:01,VALID,919.629,VALID,0,VALID,100,VALID,-0.0679233,VALID,20.037,VALID,81,VALID,0.760603,
2006-03-09, 00:41:00,VALID,919.608,VALID,0,VALID,100,VALID,-0.101885,VALID,19.998,VALID,77,VALID,0.781059,
2006-03-09, 00:42:00,VALID,919.597,VALID,0,VALID,100,VALID,-0.101885,VALID,19.9878,VALID,77,VALID,0.781441,
2006-03-09, 00:43:00,VALID,919.6,VALID,0,VALID,100,VALID,-0.101885,VALID,20.0074,VALID,77,VALID,0.741461,
2006-03-09, 00:44:00,VALID,919.601,VALID,0,VALID,100,VALID,-0.101885,VALID,20.0171,VALID,79,VALID,0.776758,
2006-03-09, 00:45:00,VALID,919.594,VALID,0,VALID,100,VALID,-0.0339617,VALID,20.0169,VALID,90,VALID,0.768003,
2006-03-09, 00:46:01,VALID,919.602,VALID,0,VALID,100,VALID,-0.118866,VALID,20.034,VALID,90,VALID,0.779797,
2006-03-09, 00:47:00,VALID,919.584,VALID,0,VALID,100,VALID,-0.0849042,VALID,20.047,VALID,90,VALID,0.9617,
2006-03-09, 00:48:00,VALID,919.602,VALID,0,VALID,100,VALID,-0.118866,VALID,20.0599,VALID,92,VALID,0.909412,
2006-03-09, 00:49:01,VALID,919.6,VALID,0,VALID,100,VALID,-0.118866,VALID,20.0532,VALID,102,VALID,1.0221,
2006-03-09, 00:50:00,VALID,919.612,VALID,0,VALID,100,VALID,-0.0849042,VALID,20.0499,VALID,115,VALID,1.07205,
2006-03-09, 00:51:00,VALID,919.639,VALID,0,VALID,100,VALID,-0.101885,VALID,20.0464,VALID,119,VALID,0.855015,
2006-03-09, 00:52:00,VALID,919.649,VALID,0,VALID,100,VALID,-0.101885,VALID,20.0502,VALID,119,VALID,0.940696,
2006-03-09, 00:53:01,VALID,919.636,VALID,0,VALID,100,VALID,-0.0169808,VALID,20.0489,VALID,119,VALID,0.86101,
2006-03-09, 00:54:00,VALID,919.641,VALID,0,VALID,100,VALID,0,VALID,20.0546,VALID,119,VALID,0.873326,
2006-03-09, 00:55:00,VALID,919.641,VALID,0,VALID,100,VALID,0.0169808,VALID,20.0613,VALID,115,VALID,0.828497,
2006-03-09, 00:56:00,VALID,919.63,VALID,0,VALID,100,VALID,0,VALID,20.0678,VALID,127,VALID,0.718192,
2006-03-09, 00:57:01,VALID,919.628,VALID,0,VALID,100,VALID,0.0169808,VALID,20.0812,VALID,132,VALID,0.655506,
2006-03-09, 00:58:00,VALID,919.625,VALID,0,VALID,100,VALID,0.0169808,VALID,20.0735,VALID,136,VALID,0.406068,
2006-03-09, 00:59:01,VALID,919.61,VALID,0,VALID,100,VALID,-0.0169808,VALID,20.0937,VALID,136,VALID,0.199033,
2006-03-09, 01:00:01,VALID,919.594,VALID,0,VALID,100,VALID,0.0169808,VALID,20.1066,VALID,136,VALID,0.0210938,
2006-03-09, 01:01:00,VALID,919.593,VALID,0,VALID,100,VALID,0.0169808,VALID,20.1101,VALID,136,VALID,0,
2006-03-09, 01:02:01,VALID,919.579,VALID,0,VALID,100,VALID,0.0339617,VALID,20.1354,VALID,136,VALID,0,
2006-03-09, 01:03:00,VALID,919.574,VALID,0,VALID,100,VALID,0.0339617,VALID,20.1513,VALID,136,VALID,0.0891335,
2006-03-09, 01:04:01,VALID,919.564,VALID,0,VALID,100,VALID,0.0339617,VALID,20.1811,VALID,136,VALID,0.0339134,
2006-03-09, 01:05:01,VALID,919.556,VALID,0,VALID,100,VALID,0.0339617,VALID,20.1772,VALID,136,VALID,0.169398,
2006-03-09, 01:06:00,VALID,919.54,VALID,0,VALID,100,VALID,0.0339617,VALID,20.1707,VALID,136,VALID,0.119368,
2006-03-09, 01:07:00,VALID,919.523,VALID,0,VALID,100,VALID,0.0169808,VALID,20.1772,VALID,136,VALID,0.0292039,
2006-03-09, 01:08:01,VALID,919.514,VALID,0,VALID,100,VALID,0,VALID,20.1973,VALID,136,VALID,0,
2006-03-09, 01:09:01,VALID,919.484,VALID,0,VALID,100,VALID,-0.0849042,VALID,20.2209,VALID,136,VALID,0.0692224,
2006-03-09, 01:10:01,VALID,919.467,VALID,0,VALID,100,VALID,-0.0849042,VALID,20.2272,VALID,136,VALID,0.113542,
2006-03-09, 01:11:01,VALID,919.442,VALID,0,VALID,100,VALID,-0.101885,VALID,20.2175,VALID,136,VALID,0.00817587,
2006-03-09, 01:12:00,VALID,919.408,VALID,0,VALID,99.968,VALID,-0.0509425,VALID,20.2175,VALID,136,VALID,0,
2006-03-09, 01:13:00,VALID,919.397,VALID,0,VALID,99.751,VALID,-0.0849042,VALID,20.1851,VALID,136,VALID,0,
2006-03-09, 01:14:01,VALID,919.373,VALID,0,VALID,99.325,VALID,-0.101885,VALID,20.1337,VALID,136,VALID,0.161014,
2006-03-09, 01:15:00,VALID,919.343,VALID,0,VALID,99.2004,VALID,-0.0509425,VALID,20.0785,VALID,126,VALID,0.438262,
2006-03-09, 01:16:01,VALID,919.333,VALID,0,VALID,99.6607,VALID,-0.0339617,VALID,20.1108,VALID,121,VALID,0.197674,
2006-03-09, 01:17:01,VALID,919.344,VALID,0,VALID,99.8642,VALID,-0.0849042,VALID,20.1404,VALID,121,VALID,0.0440341,
2006-03-09, 01:18:01,VALID,919.348,VALID,0,VALID,99.868,VALID,-0.0849042,VALID,20.1568,VALID,121,VALID,0,
2006-03-09, 01:19:01,VALID,919.361,VALID,0,VALID,99.7688,VALID,-0.0679233,VALID,20.1369,VALID,121,VALID,0,
2006-03-09, 01:20:01,VALID,919.378,VALID,0,VALID,99.5196,VALID,-0.101885,VALID,20.085,VALID,121,VALID,0,
2006-03-09, 01:21:01,VALID,919.39,VALID,0,VALID,99.4039,VALID,-0.0849042,VALID,20.0402,VALID,121,VALID,0,
2006-03-09, 01:22:01,VALID,919.399,VALID,0,VALID,99.3606,VALID,-0.0849042,VALID,19.9818,VALID,121,VALID,0.0854048,
2006-03-09, 01:23:01,VALID,919.399,VALID,0,VALID,99.3149,VALID,-0.0849042,VALID,19.9301,VALID,116,VALID,0.456055,
2006-03-09, 01:24:01,VALID,919.404,VALID,0,VALID,99.381,VALID,-0.0849042,VALID,19.8884,VALID,61,VALID,0.78746,
2006-03-09, 01:25:01,VALID,919.405,VALID,0,VALID,99.8527,VALID,-0.0509425,VALID,19.9107,VALID,57,VALID,0.968006,
2006-03-09, 01:26:01,VALID,919.404,VALID,0,VALID,99.999,VALID,-0.101885,VALID,19.943,VALID,57,VALID,0.961664,
2006-03-09, 01:27:01,VALID,919.42,VALID,0,VALID,100,VALID,-0.0849042,VALID,19.9788,VALID,57,VALID,0.841211,
2006-03-09, 01:28:01,VALID,919.422,VALID,0,VALID,100,VALID,-0.101885,VALID,20.0082,VALID,51,VALID,0.672053,
2006-03-09, 01:29:01,VALID,919.418,VALID,0,VALID,100,VALID,-0.101885,VALID,20.0214,VALID,50,VALID,0.321456,
2006-03-09, 01:30:00,VALID,919.431,VALID,0,VALID,99.8922,VALID,-0.101885,VALID,19.9786,VALID,50,VALID,0.086128,
2006-03-09, 01:31:01,VALID,919.438,VALID,0,VALID,99.8438,VALID,-0.0849042,VALID,19.9721,VALID,50,VALID,0.0664971,
2006-03-09, 01:32:01,VALID,919.45,VALID,0,VALID,99.984,VALID,-0.0679233,VALID,19.9853,VALID,50,VALID,0.00223214,
2006-03-09, 01:33:01,VALID,919.482,VALID,0,VALID,100,VALID,-0.101885,VALID,20.0368,VALID,50,VALID,0.0396076,
2006-03-09, 01:34:01,VALID,919.509,VALID,0,VALID,100,VALID,-0.0849042,VALID,20.0822,VALID,50,VALID,0.077567,
2006-03-09, 01:35:01,VALID,919.543,VALID,0,VALID,100,VALID,-0.0849042,VALID,20.0987,VALID,50,VALID,0.0117188,
2006-03-09, 01:36:01,VALID,919.576,VALID,0,VALID,100,VALID,-0.101885,VALID,20.1113,VALID,50,VALID,0.077524,
2006-03-09, 01:37:01,VALID,919.595,VALID,0,VALID,100,VALID,-0.0169808,VALID,20.1143,VALID,50,VALID,0.200076,
2006-03-09, 01:38:01,VALID,919.592,VALID,0,VALID,100,VALID,-0.0339617,VALID,20.0976,VALID,92,VALID,0.520712,
2006-03-09, 01:39:01,VALID,919.589,VALID,0,VALID,99.7408,VALID,0,VALID,20.0454,VALID,116,VALID,0.601736,
2006-03-09, 01:40:01,VALID,919.576,VALID,0,VALID,99.4891,VALID,-0.0339617,VALID,19.9875,VALID,148,VALID,0.935976,
2006-03-09, 01:41:01,VALID,919.565,VALID,0,VALID,99.6773,VALID,-0.0169808,VALID,19.9418,VALID,150,VALID,1.0627,
2006-03-09, 01:42:01,VALID,919.561,VALID,0,VALID,99.926,VALID,0,VALID,19.9455,VALID,146,VALID,0.930051,
2006-03-09, 01:43:01,VALID,919.551,VALID,0,VALID,100,VALID,0,VALID,19.952,VALID,141,VALID,0.661966,
2006-03-09, 01:44:01,VALID,919.546,VALID,0,VALID,100,VALID,0,VALID,19.9647,VALID,137,VALID,0.496652,
2006-03-09, 01:45:01,VALID,919.543,VALID,0,VALID,100,VALID,0.0169808,VALID,19.9579,VALID,137,VALID,0.100229,
2006-03-09, 01:46:01,VALID,919.52,VALID,0,VALID,100,VALID,-0.0339617,VALID,19.9778,VALID,137,VALID,0.0575457,
2006-03-09, 01:47:01,VALID,919.507,VALID,0,VALID,100,VALID,0,VALID,19.9654,VALID,137,VALID,0.306504,
2006-03-09, 01:48:01,VALID,919.479,VALID,0,VALID,100,VALID,0.0169808,VALID,19.9684,VALID,137,VALID,0.444741,
2006-03-09, 01:49:01,VALID,919.451,VALID,0,VALID,100,VALID,0,VALID,19.9776,VALID,137,VALID,0.565163,
2006-03-09, 01:50:01,VALID,919.462,VALID,0,VALID,100,VALID,-0.0339617,VALID,19.9937,VALID,142,VALID,0.525112,
2006-03-09, 01:51:00,VALID,919.462,VALID,0,VALID,100,VALID,-0.0169808,VALID,20.0169,VALID,156,VALID,0.57848,
2006-03-09, 01:52:00,VALID,919.482,VALID,0,VALID,100,VALID,-0.0339617,VALID,20.0392,VALID,160,VALID,0.556734,
2006-03-09, 01:53:00,VALID,919.506,VALID,0,VALID,100,VALID,-0.0339617,VALID,20.0554,VALID,160,VALID,0.375191,
2006-03-09, 01:54:00,VALID,919.514,VALID,0,VALID,100,VALID,0,VALID,20.0616,VALID,160,VALID,0.197621,
2006-03-09, 01:55:00,VALID,919.524,VALID,0,VALID,100,VALID,0,VALID,20.075,VALID,160,VALID,0.278232,
2006-03-09, 01:56:00,VALID,919.513,VALID,0,VALID,100,VALID,-0.0339617,VALID,20.0713,VALID,160,VALID,0.382813,
2006-03-09, 01:57:00,VALID,919.519,VALID,0,VALID,100,VALID,0,VALID,20.0909,VALID,160,VALID,0.448933,
2006-03-09, 01:58:00,VALID,919.489,VALID,0,VALID,100,VALID,-0.0169808,VALID,20.1039,VALID,160,VALID,0.625545,
2006-03-09, 01:59:00,VALID,919.45,VALID,0,VALID,100,VALID,0,VALID,20.1009,VALID,160,VALID,0.915777,
2006-03-09, 02:00:00,VALID,919.439,VALID,0,VALID,100,VALID,0,VALID,20.0904,VALID,158,VALID,1.06603,
2006-03-09, 02:01:00,VALID,919.395,VALID,0,VALID,100,VALID,0.0169808,VALID,20.0902,VALID,149,VALID,1.04199,
2006-03-09, 02:02:00,VALID,919.371,VALID,0,VALID,100,VALID,0.0169808,VALID,20.0745,VALID,149,VALID,1.09086,
2006-03-09, 02:03:00,VALID,919.353,VALID,0,VALID,100,VALID,0,VALID,20.0845,VALID,148,VALID,1.08233,
2006-03-09, 02:04:00,VALID,919.345,VALID,0,VALID,100,VALID,-0.0169808,VALID,20.0777,VALID,138,VALID,0.928013,
2006-03-09, 02:05:00,VALID,919.325,VALID,0,VALID,100,VALID,0,VALID,20.078,VALID,126,VALID,0.731771,
2006-03-09, 02:06:00,VALID,919.315,VALID,0,VALID,100,VALID,0,VALID,20.0743,VALID,120,VALID,0.644259,
2006-03-09, 02:07:00,VALID,919.301,VALID,0,VALID,100,VALID,0.0169808,VALID,20.0805,VALID,114,VALID,0.442835,
2006-03-09, 02:08:00,VALID,919.279,VALID,0,VALID,100,VALID,0,VALID,20.0842,VALID,111,VALID,0.516369,
2006-03-09, 02:09:00,VALID,919.276,VALID,0,VALID,100,VALID,0,VALID,20.0974,VALID,109,VALID,0.502232,
2006-03-09, 02:10:00,VALID,919.241,VALID,0,VALID,100,VALID,0,VALID,20.0976,VALID,109,VALID,0.363095,
2006-03-09, 02:11:00,VALID,919.24,VALID,0,VALID,100,VALID,0.0169808,VALID,20.1006,VALID,109,VALID,0.385653,
2006-03-09, 02:12:00,VALID,919.235,VALID,0,VALID,100,VALID,-0.0169808,VALID,20.0934,VALID,109,VALID,0.567508,
2006-03-09, 02:13:00,VALID,919.249,VALID,0,VALID,100,VALID,0,VALID,20.0743,VALID,112,VALID,0.766183,
2006-03-09, 02:14:00,VALID,919.245,VALID,0,VALID,100,VALID,0,VALID,20.081,VALID,119,VALID,0.982329,
2006-03-09, 02:15:00,VALID,919.233,VALID,0,VALID,100,VALID,0,VALID,20.0683,VALID,116,VALID,0.948933,
2006-03-09, 02:16:00,VALID,919.229,VALID,0,VALID,100,VALID,-0.0339617,VALID,20.0325,VALID,119,VALID,0.903773,
2006-03-09, 02:17:00,VALID,919.222,VALID,0,VALID,100,VALID,-0.0339617,VALID,20.0233,VALID,119,VALID,1.37145,
2006-03-09, 02:18:00,VALID,919.228,VALID,0,VALID,100,VALID,0,VALID,20.0136,VALID,121,VALID,1.22118,
2006-03-09, 02:19:00,VALID,919.235,VALID,0,VALID,100,VALID,0,VALID,19.994,VALID,135,VALID,0.908727,
2006-03-09, 02:20:00,VALID,919.217,VALID,0,VALID,100,VALID,-0.0169808,VALID,19.9813,VALID,123,VALID,1.1141,
2006-03-09, 02:21:00,VALID,919.211,VALID,0,VALID,100,VALID,0.0169808,VALID,19.9547,VALID,95,VALID,0.68941,
2006-03-09, 02:22:00,VALID,919.219,VALID,0,VALID,100,VALID,0.0169808,VALID,19.945,VALID,95,VALID,0.758789,
2006-03-09, 02:23:00,VALID,919.21,VALID,0,VALID,100,VALID,-0.0169808,VALID,19.9455,VALID,78,VALID,0.612464,
2006-03-09, 02:24:00,VALID,919.202,VALID,0,VALID,100,VALID,-0.0339617,VALID,19.9435,VALID,103,VALID,0.660528,
2006-03-09, 02:25:00,VALID,919.176,VALID,0,VALID,100,VALID,-0.101885,VALID,19.9401,VALID,121,VALID,0.807413,
2006-03-09, 02:26:00,VALID,919.14,VALID,0,VALID,100,VALID,-0.0679233,VALID,19.9237,VALID,124,VALID,0.740451,
2006-03-09, 02:27:00,VALID,919.106,VALID,0,VALID,100,VALID,-0.0679233,VALID,19.911,VALID,111,VALID,1.16824,
2006-03-09, 02:28:00,VALID,919.075,VALID,0,VALID,100,VALID,-0.0509425,VALID,19.9107,VALID,101,VALID,1.3234,
2006-03-09, 02:29:00,VALID,919.05,VALID,0,VALID,100,VALID,-0.101885,VALID,19.9045,VALID,88,VALID,1.07688,
2006-03-09, 02:30:00,VALID,919.032,VALID,0,VALID,100,VALID,-0.118866,VALID,19.905,VALID,88,VALID,1.19586,
2006-03-09, 02:31:00,VALID,919.035,VALID,0,VALID,100,VALID,-0.0509425,VALID,19.9013,VALID,100,VALID,1,
2006-03-09, 02:32:00,VALID,919.035,VALID,0,VALID,100,VALID,-0.0509425,VALID,19.8981,VALID,94,VALID,0.724019,
2006-03-09, 02:33:00,VALID,919.043,VALID,0,VALID,100,VALID,-0.0509425,VALID,19.8913,VALID,119,VALID,0.897866,
2006-03-09, 02:34:00,VALID,919.069,VALID,0,VALID,100,VALID,-0.0679233,VALID,19.908,VALID,119,VALID,0.694382,
2006-03-09, 02:35:00,VALID,919.088,VALID,0,VALID,100,VALID,-0.0509425,VALID,19.9008,VALID,124,VALID,1.11179,
2006-03-09, 02:36:00,VALID,919.085,VALID,0,VALID,100,VALID,-0.101885,VALID,19.9242,VALID,119,VALID,1.47148,
2006-03-09, 02:37:00,VALID,919.103,VALID,0,VALID,100,VALID,-0.101885,VALID,19.9271,VALID,113,VALID,1.42951,
2006-03-09, 02:38:00,VALID,919.085,VALID,0,VALID,100,VALID,-0.101885,VALID,19.9142,VALID,111,VALID,1.28854,
2006-03-09, 02:39:00,VALID,919.065,VALID,0,VALID,100,VALID,-0.0679233,VALID,19.9239,VALID,101,VALID,1.17097,
2006-03-09, 02:40:00,VALID,919.065,VALID,0,VALID,100,VALID,-0.0849042,VALID,19.914,VALID,91,VALID,0.882015,
2006-03-09, 02:41:00,VALID,919.029,VALID,0,VALID,100,VALID,-0.101885,VALID,19.9344,VALID,107,VALID,0.790396,
2006-03-09, 02:42:00,VALID,919.013,VALID,0,VALID,100,VALID,-0.0509425,VALID,19.914,VALID,113,VALID,0.548437,
2006-03-09, 02:43:00,VALID,918.997,VALID,0,VALID,100,VALID,-0.0679233,VALID,19.9276,VALID,113,VALID,0.141493,
2006-03-09, 02:44:00,VALID,918.975,VALID,0,VALID,100,VALID,-0.0509425,VALID,19.9174,VALID,113,VALID,0.094308,
2006-03-09, 02:45:00,VALID,918.968,VALID,0,VALID,100,VALID,-0.0679233,VALID,19.9274,VALID,113,VALID,0.245486,
2006-03-09, 02:46:00,VALID,918.989,VALID,0,VALID,100,VALID,-0.0509425,VALID,19.9244,VALID,229,VALID,0.824609,
2006-03-09, 02:47:00,VALID,919,VALID,0,VALID,100,VALID,-0.0849042,VALID,19.9142,VALID,287,VALID,0.764881,
2006-03-09, 02:48:00,VALID,918.992,VALID,0,VALID,100,VALID,-0.0679233,VALID,19.908,VALID,289,VALID,0.284766,
2006-03-09, 02:49:00,VALID,918.988,VALID,0,VALID,100,VALID,-0.0849042,VALID,19.8953,VALID,289,VALID,0,
2006-03-09, 02:50:00,VALID,918.994,VALID,0,VALID,100,VALID,-0.0679233,VALID,19.8889,VALID,289,VALID,0,
2006-03-09, 02:51:00,VALID,918.985,VALID,0,VALID,100,VALID,-0.0849042,VALID,19.8692,VALID,289,VALID,0,
2006-03-09, 02:52:00,VALID,918.982,VALID,0,VALID,100,VALID,-0.0849042,VALID,19.8759,VALID,289,VALID,0,
2006-03-09, 02:53:00,VALID,918.967,VALID,0,VALID,100,VALID,-0.0509425,VALID,19.8717,VALID,289,VALID,0,
2006-03-09, 02:54:00,VALID,918.95,VALID,0,VALID,100,VALID,0,VALID,19.8613,VALID,289,VALID,0.0284598,
2006-03-09, 02:55:00,VALID,918.91,VALID,0,VALID,100,VALID,0.0169808,VALID,19.8486,VALID,289,VALID,0.290551,
2006-03-09, 02:56:00,VALID,918.878,VALID,0,VALID,100,VALID,0.0339617,VALID,19.816,VALID,15,VALID,0.593924,
2006-03-09, 02:57:00,VALID,918.845,VALID,0,VALID,100,VALID,0,VALID,19.8034,VALID,59,VALID,0.588224,
2006-03-09, 02:58:00,VALID,918.807,VALID,0,VALID,100,VALID,0.0169808,VALID,19.823,VALID,59,VALID,0.513393,
2006-03-09, 02:59:00,VALID,918.801,VALID,0,VALID,100,VALID,0,VALID,19.8257,VALID,59,VALID,0.234189,
2006-03-09, 03:00:00,VALID,918.766,VALID,0,VALID,100,VALID,0.0339617,VALID,19.8227,VALID,59,VALID,0.0173234,
2006-03-09, 03:01:00,VALID,918.737,VALID,0,VALID,100,VALID,-0.0169808,VALID,19.8001,VALID,59,VALID,0,
2006-03-09, 03:02:00,VALID,918.743,VALID,0,VALID,100,VALID,0.0169808,VALID,19.7425,VALID,31,VALID,0.191502,
2006-03-09, 03:03:00,VALID,918.717,VALID,0,VALID,100,VALID,-0.0169808,VALID,19.7231,VALID,314,VALID,0.517531,
2006-03-09, 03:04:00,VALID,918.729,VALID,0,VALID,100,VALID,0.0509425,VALID,19.7614,VALID,292,VALID,0.490945,
2006-03-09, 03:05:00,VALID,918.734,VALID,0,VALID,100,VALID,0,VALID,19.7939,VALID,292,VALID,0.340199,
2006-03-09, 03:06:00,VALID,918.758,VALID,0,VALID,100,VALID,0.0339617,VALID,19.7969,VALID,292,VALID,0.373728,
2006-03-09, 03:07:00,VALID,918.784,VALID,0,VALID,100,VALID,0.0169808,VALID,19.8165,VALID,292,VALID,0.160362,
2006-03-09, 03:08:00,VALID,918.789,VALID,0,VALID,100,VALID,0.0169808,VALID,19.8001,VALID,292,VALID,0,
2006-03-09, 03:09:00,VALID,918.822,VALID,0,VALID,100,VALID,0.0169808,VALID,19.781,VALID,292,VALID,0.000181686,
2006-03-09, 03:10:00,VALID,918.81,VALID,0,VALID,100,VALID,-0.0169808,VALID,19.7295,VALID,350,VALID,0.543679,
2006-03-09, 03:11:00,VALID,918.776,VALID,0,VALID,100,VALID,0.0169808,VALID,19.6649,VALID,17,VALID,0.712612,
2006-03-09, 03:12:00,VALID,918.781,VALID,0,VALID,100,VALID,0,VALID,19.6194,VALID,28,VALID,0.863982,
2006-03-09, 03:13:00,VALID,918.773,VALID,0,VALID,100,VALID,0.0169808,VALID,19.6229,VALID,17,VALID,0.677782,
2006-03-09, 03:14:00,VALID,918.748,VALID,0,VALID,100,VALID,0,VALID,19.6353,VALID,17,VALID,0.417597,
2006-03-09, 03:15:00,VALID,918.734,VALID,0,VALID,100,VALID,0.0169808,VALID,19.6192,VALID,17,VALID,0.173209,
2006-03-09, 03:16:00,VALID,918.709,VALID,0,VALID,100,VALID,0.0339617,VALID,19.6063,VALID,28,VALID,0.470203,
2006-03-09, 03:17:00,VALID,918.69,VALID,0,VALID,100,VALID,0.0169808,VALID,19.5933,VALID,56,VALID,0.548958,
2006-03-09, 03:18:00,VALID,918.66,VALID,0,VALID,100,VALID,0.0169808,VALID,19.564,VALID,77,VALID,0.477134,
2006-03-09, 03:19:00,VALID,918.632,VALID,0,VALID,100,VALID,0.0339617,VALID,19.5737,VALID,81,VALID,0.471875,
2006-03-09, 03:20:00,VALID,918.619,VALID,0,VALID,100,VALID,0.0339617,VALID,19.5998,VALID,81,VALID,0.476918,
2006-03-09, 03:21:00,VALID,918.599,VALID,0,VALID,100,VALID,0.0509425,VALID,19.616,VALID,83,VALID,0.524709,
2006-03-09, 03:22:00,VALID,918.585,VALID,0,VALID,100,VALID,0.0679233,VALID,19.6162,VALID,92,VALID,0.653832,
2006-03-09, 03:23:00,VALID,918.566,VALID,0,VALID,100,VALID,-0.0509425,VALID,19.6266,VALID,95,VALID,0.699491,
2006-03-09, 03:24:00,VALID,918.584,VALID,0,VALID,100,VALID,-0.0849042,VALID,19.6142,VALID,105,VALID,0.838341,
2006-03-09, 03:25:00,VALID,918.575,VALID,0,VALID,100,VALID,-0.118866,VALID,19.6085,VALID,105,VALID,0.910065,
2006-03-09, 03:26:00,VALID,918.565,VALID,0,VALID,100,VALID,-0.101885,VALID,19.5561,VALID,115,VALID,1.06428,
2006-03-09, 03:27:00,VALID,918.573,VALID,0,VALID,100,VALID,-0.101885,VALID,19.5401,VALID,118,VALID,1.13114,
2006-03-09, 03:28:00,VALID,918.563,VALID,0,VALID,100,VALID,-0.118866,VALID,19.5372,VALID,137,VALID,0.99349,
2006-03-09, 03:29:00,VALID,918.557,VALID,0,VALID,100,VALID,-0.118866,VALID,19.5014,VALID,144,VALID,0.770774,
2006-03-09, 03:30:00,VALID,918.545,VALID,0,VALID,100,VALID,-0.118866,VALID,19.5046,VALID,144,VALID,0.398256,
2006-03-09, 03:31:00,VALID,918.537,VALID,0,VALID,100,VALID,-0.101885,VALID,19.5183,VALID,144,VALID,0.39897,
2006-03-09, 03:32:00,VALID,918.558,VALID,0,VALID,100,VALID,-0.101885,VALID,19.5143,VALID,144,VALID,0.0630859,
2006-03-09, 03:33:00,VALID,918.553,VALID,0,VALID,100,VALID,-0.101885,VALID,19.5111,VALID,144,VALID,0,
2006-03-09, 03:34:00,VALID,918.549,VALID,0,VALID,100,VALID,-0.118866,VALID,19.5078,VALID,144,VALID,0.0794922,
2006-03-09, 03:35:00,VALID,918.557,VALID,0,VALID,100,VALID,-0.101885,VALID,19.5247,VALID,144,VALID,0.286754,
2006-03-09, 03:36:00,VALID,918.537,VALID,0,VALID,100,VALID,-0.101885,VALID,19.5086,VALID,154,VALID,0.801562,
2006-03-09, 03:37:00,VALID,918.528,VALID,0,VALID,100,VALID,-0.101885,VALID,19.4852,VALID,155,VALID,0.921875,
2006-03-09, 03:38:00,VALID,918.523,VALID,0,VALID,100,VALID,-0.0169808,VALID,19.4688,VALID,155,VALID,0.726732,
2006-03-09, 03:39:00,VALID,918.496,VALID,0,VALID,100,VALID,-0.0169808,VALID,19.445,VALID,155,VALID,0.858817,
2006-03-09, 03:40:00,VALID,918.487,VALID,0,VALID,100,VALID,-0.0169808,VALID,19.4447,VALID,150,VALID,0.624047,